Page, AZ

12:56 PM MDT on March 28, 2017 (GMT -0600)
Page Municipal

Weather History for KPGA - June, 2014

Change the Weather History Date:

Wednesday, June 11, 2014

  Actual Average Record
Temperature  
Mean Temperature 82 °F -  
Max Temperature 95 °F 89 °F 100 °F (1981)
Min Temperature 70 °F 60 °F 49 °F (1969)
Cooling Degree Days 18    
Growing Degree Days 32 (Base 50)    
Moisture  
Dew Point 27 °F    
Average Humidity 12    
Maximum Humidity 22    
Minimum Humidity 4    
Precipitation  
Precipitation 0.00 in - - ()
Sea Level Pressure  
Sea Level Pressure 29.66 in    
Wind  
Wind Speed 7 mph (SW)    
Max Wind Speed 13 mph    
Max Gust Speed 21 mph    
Visibility 10 miles    
Events      
Averages and records for this station are not official NWS values.
T = Trace of Precipitation, MM = Missing Value Source: NWS Daily Summary

Daily Weather History Graph

Daily Weather History Graph

Search for Another Location

Airport or City:

Trip Planner

Search our weather history database for the weather conditions in past years. The results will help you decide how hot, cold, wet, or windy it might be!

Date:

Astronomy

Jun. 11, 2014 Rise Set
Actual Time 5:05 AM MST 7:45 PM MST
Civil Twilight 4:35 AM MST 8:15 PM MST
Nautical Twilight 3:57 AM MST 8:54 PM MST
Astronomical Twilight 3:14 AM MST 9:37 PM MST
Moon 6:21 PM MST (6/11) 3:55 AM MST (6/11)
Length of Visible Light 15h 40m
Length of Day
14h 39m
Waxing Gibbous, 97% of the Moon is Illuminated
Jun 11
Waxing Gibbous
Jun 12
Full
Jun 19
Last Quarter
Jun 27
New
Jul 5
First Quarter

Hourly Weather History & Observations

Time (MST) Temp. Dew Point Humidity Pressure Visibility Wind Dir Wind Speed Gust Speed Precip Events Conditions
12:53 AM 84.9 °F 34.0 °F 16% 29.62 in 10.0 mi WSW 6.9 mph - N/A   Clear
1:53 AM 82.9 °F 30.9 °F 15% 29.62 in 10.0 mi WSW 5.8 mph - N/A   Clear
2:53 AM 77.0 °F 30.9 °F 19% 29.64 in 10.0 mi SSW 5.8 mph - N/A   Clear
3:53 AM 73.0 °F 28.9 °F 20% 29.65 in 10.0 mi South 4.6 mph - N/A   Clear
4:53 AM 72.0 °F 27.0 °F 19% 29.67 in 10.0 mi SSW 4.6 mph - N/A   Clear
5:53 AM 73.9 °F 25.0 °F 16% 29.69 in 10.0 mi SW 3.5 mph - N/A   Clear
6:53 AM 78.1 °F 25.0 °F 14% 29.69 in 10.0 mi SW 8.1 mph - N/A   Clear
7:53 AM 82.0 °F 25.0 °F 12% 29.70 in 10.0 mi SW 12.7 mph 20.7 mph N/A   Clear
8:53 AM 84.0 °F 30.9 °F 15% 29.69 in 10.0 mi SSW 10.4 mph 20.7 mph N/A   Clear
9:53 AM 84.9 °F 26.1 °F 12% 29.69 in 10.0 mi SSW 11.5 mph 17.3 mph N/A   Clear
10:53 AM 88.0 °F 24.1 °F 10% 29.68 in 10.0 mi SSW 8.1 mph - N/A   Clear
11:53 AM 90.0 °F 16.0 °F 7% 29.67 in 10.0 mi South 6.9 mph - N/A   Clear
12:53 PM 91.0 °F 23.0 °F 8% 29.65 in 10.0 mi North - - N/A   Clear
1:53 PM 93.0 °F 24.1 °F 8% 29.62 in 10.0 mi Variable 4.6 mph - N/A   Clear
2:53 PM 93.9 °F 23.0 °F 8% 29.61 in 10.0 mi Variable 3.5 mph - N/A   Clear
3:53 PM 93.0 °F 19.0 °F 7% 29.61 in 10.0 mi West 6.9 mph - N/A   Clear
4:53 PM 93.9 °F 18.0 °F 6% 29.60 in 10.0 mi West 12.7 mph 19.6 mph N/A   Clear
5:53 PM 93.0 °F 19.0 °F 7% 29.60 in 10.0 mi West 8.1 mph - N/A   Clear
6:53 PM 91.0 °F 17.1 °F 7% 29.61 in 10.0 mi North 6.9 mph - N/A   Clear
7:53 PM 86.0 °F 35.1 °F 16% 29.64 in 10.0 mi North 9.2 mph - N/A   Clear
8:53 PM 84.9 °F 33.1 °F 16% 29.67 in 10.0 mi Calm Calm - N/A   Clear
9:53 PM 80.1 °F 35.1 °F 20% 29.69 in 10.0 mi Calm Calm - N/A   Clear
10:53 PM 78.1 °F 36.0 °F 22% 29.70 in 10.0 mi SW 4.6 mph - N/A   Clear
11:53 PM 79.0 °F 33.1 °F 19% 29.70 in 10.0 mi SW 4.6 mph - N/A   Clear